TimeEST,TemperatureF,Dew PointF,Humidity,Sea Level PressureIn,VisibilityMPH,Wind Direction,Wind SpeedMPH,Gust SpeedMPH,PrecipitationIn,Events,Conditions,WindDirDegrees,DateUTC
12:15 AM,42.8,41.5,95,30.14,10.0,Calm,Calm,-,N/A,,Scattered Clouds,0,2012-11-22 05:15:00
12:35 AM,42.3,41.0,95,30.15,10.0,Calm,Calm,-,N/A,,Scattered Clouds,0,2012-11-22 05:35:00
12:55 AM,43.0,41.2,93,30.15,10.0,Calm,Calm,-,N/A,,Scattered Clouds,0,2012-11-22 05:55:00
1:15 AM,42.1,40.5,94,30.15,10.0,Calm,Calm,-,N/A,,Clear,0,2012-11-22 06:15:00
1:35 AM,41.4,40.5,97,30.15,10.0,Calm,Calm,-,N/A,,Scattered Clouds,0,2012-11-22 06:35:00
1:55 AM,41.2,41.0,99,30.15,10.0,Calm,Calm,-,N/A,,Scattered Clouds,0,2012-11-22 06:55:00
2:15 AM,40.6,40.6,100,30.15,10.0,Calm,Calm,-,N/A,,Scattered Clouds,0,2012-11-22 07:15:00
2:35 AM,41.2,40.1,96,30.16,10.0,Calm,Calm,-,N/A,,Clear,0,2012-11-22 07:35:00
2:55 AM,39.9,39.7,99,30.16,10.0,Calm,Calm,-,N/A,,Scattered Clouds,0,2012-11-22 07:55:00
3:15 AM,39.2,39.4,100,30.16,10.0,Calm,Calm,-,N/A,,Scattered Clouds,0,2012-11-22 08:15:00
3:35 AM,40.1,40.3,100,30.16,10.0,Calm,Calm,-,N/A,,Scattered Clouds,0,2012-11-22 08:35:00
3:55 AM,39.6,39.6,100,30.16,10.0,Calm,Calm,-,N/A,,Scattered Clouds,0,2012-11-22 08:55:00
4:15 AM,39.7,39.7,100,30.16,10.0,NNW,3.5,-,N/A,,Scattered Clouds,340,2012-11-22 09:15:00
4:35 AM,38.8,39.2,100,30.17,10.0,Calm,Calm,-,N/A,,Scattered Clouds,0,2012-11-22 09:35:00
4:55 AM,37.8,37.9,100,30.17,10.0,Calm,Calm,-,N/A,,Scattered Clouds,0,2012-11-22 09:55:00
5:15 AM,37.8,37.9,100,30.18,10.0,Calm,Calm,-,N/A,,Scattered Clouds,0,2012-11-22 10:15:00
5:35 AM,38.1,38.1,100,30.18,10.0,NE,3.5,-,N/A,,Clear,50,2012-11-22 10:35:00
5:55 AM,40.5,38.7,93,30.18,10.0,NNE,3.5,-,N/A,,Scattered Clouds,30,2012-11-22 10:55:00
6:15 AM,40.6,39.0,94,30.19,10.0,Calm,Calm,-,N/A,,Scattered Clouds,0,2012-11-22 11:15:00
6:35 AM,39.2,38.7,98,30.20,10.0,Calm,Calm,-,N/A,,Scattered Clouds,0,2012-11-22 11:35:00
6:55 AM,39.6,38.5,96,30.21,10.0,Calm,Calm,-,N/A,,Clear,0,2012-11-22 11:55:00
7:15 AM,37.2,37.0,99,30.22,10.0,Calm,Calm,-,N/A,,Scattered Clouds,0,2012-11-22 12:15:00
7:35 AM,36.7,36.9,100,30.22,10.0,Calm,Calm,-,N/A,,Scattered Clouds,0,2012-11-22 12:35:00
7:55 AM,38.3,38.1,99,30.23,10.0,North,3.5,-,N/A,,Scattered Clouds,360,2012-11-22 12:55:00
8:15 AM,40.6,39.2,95,30.23,10.0,Calm,Calm,-,N/A,,Scattered Clouds,0,2012-11-22 13:15:00
8:35 AM,43.3,39.7,87,30.24,10.0,Calm,Calm,-,N/A,,Scattered Clouds,0,2012-11-22 13:35:00
8:55 AM,46.0,39.9,79,30.24,10.0,NNE,3.5,-,N/A,,Mostly Cloudy,30,2012-11-22 13:55:00
9:15 AM,48.9,39.6,70,30.24,10.0,NNE,4.6,-,N/A,,Scattered Clouds,20,2012-11-22 14:15:00
9:35 AM,51.4,39.6,64,30.24,10.0,NE,3.5,-,N/A,,Scattered Clouds,40,2012-11-22 14:35:00
9:55 AM,53.1,38.3,57,30.25,10.0,ENE,4.6,-,N/A,,Scattered Clouds,60,2012-11-22 14:55:00
10:15 AM,54.5,37.8,53,30.25,10.0,NNE,6.9,-,N/A,,Mostly Cloudy,20,2012-11-22 15:15:00
10:35 AM,55.9,37.8,51,30.25,10.0,NE,5.8,-,N/A,,Mostly Cloudy,40,2012-11-22 15:35:00
10:55 AM,57.7,37.8,47,30.24,10.0,North,4.6,-,N/A,,Mostly Cloudy,10,2012-11-22 15:55:00
11:15 AM,59.9,35.6,40,30.24,10.0,NE,8.1,-,N/A,,Scattered Clouds,50,2012-11-22 16:15:00
11:35 AM,61.5,33.6,35,30.24,10.0,NNE,5.8,-,N/A,,Scattered Clouds,30,2012-11-22 16:35:00
11:55 AM,62.8,34.0,34,30.23,10.0,North,5.8,-,N/A,,Mostly Cloudy,10,2012-11-22 16:55:00
12:15 PM,63.5,34.5,34,30.22,10.0,North,4.6,-,N/A,,Mostly Cloudy,350,2012-11-22 17:15:00
12:35 PM,63.9,35.2,35,30.21,10.0,North,9.2,-,N/A,,Mostly Cloudy,10,2012-11-22 17:35:00
12:55 PM,64.6,35.8,34,30.20,10.0,NNE,9.2,-,N/A,,Mostly Cloudy,30,2012-11-22 17:55:00
1:15 PM,64.9,36.3,35,30.19,10.0,NNE,4.6,-,N/A,,Mostly Cloudy,30,2012-11-22 18:15:00
1:35 PM,65.5,36.7,35,30.18,10.0,NNE,9.2,-,N/A,,Mostly Cloudy,20,2012-11-22 18:35:00
1:55 PM,66.2,37.6,35,30.17,10.0,NNE,6.9,-,N/A,,Mostly Cloudy,30,2012-11-22 18:55:00
2:15 PM,66.7,37.9,35,30.17,10.0,NNW,8.1,-,N/A,,Mostly Cloudy,340,2012-11-22 19:15:00
2:35 PM,66.9,37.9,34,30.16,10.0,North,6.9,-,N/A,,Scattered Clouds,350,2012-11-22 19:35:00
2:55 PM,67.3,38.1,34,30.16,10.0,NNW,11.5,-,N/A,,Mostly Cloudy,340,2012-11-22 19:55:00
3:15 PM,66.9,37.9,34,30.16,10.0,NNW,8.1,-,N/A,,Mostly Cloudy,340,2012-11-22 20:15:00
3:35 PM,66.9,37.8,34,30.16,10.0,NNE,8.1,-,N/A,,Mostly Cloudy,20,2012-11-22 20:35:00
3:55 PM,66.7,37.8,34,30.16,10.0,North,6.9,-,N/A,,Scattered Clouds,10,2012-11-22 20:55:00
4:15 PM,66.6,38.1,35,30.16,10.0,North,5.8,-,N/A,,Scattered Clouds,10,2012-11-22 21:15:00
4:35 PM,66.2,38.3,36,30.16,10.0,NNE,3.5,-,N/A,,Scattered Clouds,20,2012-11-22 21:35:00
4:55 PM,64.9,38.3,37,30.16,10.0,North,3.5,-,N/A,,Scattered Clouds,360,2012-11-22 21:55:00
5:15 PM,63.5,38.5,40,30.17,10.0,Calm,Calm,-,N/A,,Scattered Clouds,0,2012-11-22 22:15:00
5:35 PM,60.8,38.7,44,30.17,10.0,Calm,Calm,-,N/A,,Scattered Clouds,0,2012-11-22 22:35:00
5:55 PM,56.3,39.0,52,30.17,10.0,Calm,Calm,-,N/A,,Clear,0,2012-11-22 22:55:00
6:15 PM,54.3,39.0,56,30.18,10.0,Calm,Calm,-,N/A,,Clear,0,2012-11-22 23:15:00
6:35 PM,52.9,38.5,58,30.18,10.0,Calm,Calm,-,N/A,,Clear,0,2012-11-22 23:35:00
7:15 PM,49.6,40.5,71,30.19,10.0,Calm,Calm,-,N/A,,Scattered Clouds,0,2012-11-23 00:15:00
7:35 PM,48.4,42.1,79,30.19,10.0,Calm,Calm,-,N/A,,Scattered Clouds,0,2012-11-23 00:35:00
7:55 PM,47.5,41.5,80,30.20,10.0,Calm,Calm,-,N/A,,Scattered Clouds,0,2012-11-23 00:55:00
8:15 PM,46.9,40.5,78,30.21,10.0,Calm,Calm,-,N/A,,Scattered Clouds,0,2012-11-23 01:15:00
8:35 PM,46.4,39.2,76,30.20,10.0,Calm,Calm,-,N/A,,Scattered Clouds,0,2012-11-23 01:35:00
8:55 PM,45.5,39.2,79,30.20,10.0,Calm,Calm,-,N/A,,Scattered Clouds,0,2012-11-23 01:55:00
9:15 PM,45.5,40.5,83,30.20,10.0,Calm,Calm,-,N/A,,Clear,0,2012-11-23 02:15:00
9:35 PM,44.8,40.3,84,30.20,10.0,Calm,Calm,-,N/A,,Scattered Clouds,0,2012-11-23 02:35:00
9:55 PM,44.1,39.6,84,30.21,10.0,Calm,Calm,-,N/A,,Clear,0,2012-11-23 02:55:00
10:15 PM,43.7,39.6,85,30.20,10.0,Calm,Calm,-,N/A,,Scattered Clouds,0,2012-11-23 03:15:00
10:35 PM,42.8,39.2,87,30.20,10.0,Calm,Calm,-,N/A,,Scattered Clouds,0,2012-11-23 03:35:00
10:55 PM,42.3,38.3,86,30.20,10.0,Calm,Calm,-,N/A,,Clear,0,2012-11-23 03:55:00
11:15 PM,42.6,38.5,85,30.20,10.0,Calm,Calm,-,N/A,,Scattered Clouds,0,2012-11-23 04:15:00
11:35 PM,40.8,39.9,97,30.20,10.0,Calm,Calm,-,N/A,,Scattered Clouds,0,2012-11-23 04:35:00
11:55 PM,40.3,40.1,99,30.20,10.0,Calm,Calm,-,N/A,,Scattered Clouds,0,2012-11-23 04:55:00